Showing default

AUTCUBE 2, 43681

Orbit data source: Space-Track

AUTCUBE 2, 43681 is a payload satellite in SSO that was launched on Mon, 29 Oct 2018 UTC via an H-IIA 202 launch vehicle from the Tanegashima Space Center (TNSTA). Payload-class satellites include a variety of spacecraft equipped with specific instruments for various scientific and technological missions. These include communications satellites like Starlink; space stations such as the ISS; scientific satellites like the Hubble; Earth observation satellites from companies like Planet Labs, Umbra, and HawkEye 360; GPS; miniature CubeSats for education and research; and military/defense satellites.

Loading next visibility...
Identifier
43681, 2018-084K
Orbit
SSO
Country
Flag of TBDTBD
Related business
Manufacturer
AUT
Mission
Operational Amateur Technology
Bus & Motor
CUBESAT 1U, Unknown motor
Mass
1.6 kg wet, 1.6 kg dry
Launch date (UTC)
2018-10-29 (7 years ago)
Launch vehicle
H-IIA 202
Launch site
Tanegashima Space Center (TNSTA)
Object type
Payload
Rocket body
Debris
Shape & HBR
Box, 0.1 m
Radar Cross Section
0.015 m², Small (<0.1 m²)

Expand to show TLE details & history
Last TLE update: 10 hours ago

TLE from 10 hours ago
0 AUTCUBE 2
1 43681U 18084K   25286.74859361  .00007406  00000-0  49218-3 0  9993
2 43681  98.0843 115.0205 0009873 150.6929 209.4853 15.07471180379766
Epoch: 2025-10-13T17:57Z
TLE epoch observation values (Epoch: 2025-10-13T17:57:58.487Z)
Latitude
-0.00005°
Longitude
-177.02011°
Altitude
552.936 km
Speed
7.582 km/s
True Right ascension
07h 40m 04s
True Declination
0° 00' 00"
Sunlit
Object was in daylight at epoch
Visualization orbit readout
Latitude
Unknown
Longitude
Unknown
Altitude
Unknown
Speed
Unknown
Apparent Right ascension
Unknown
Apparent Declination
Unknown
Sunlit
N/A
Visualization observer readout
Local Sidereal Time
22:42:50
Azimuth
Unknown
Elevation
Unknown
Doppler factor
Unknown
Orbital elements
Apogee altitude
547.774 km
Perigee altitude
534.112 km
Semi-major axis
6,919.08 km
Eccentricity
0.00099
Inclination
98.0843°
RAAN
115.0205°
Arg. of periapsis
150.6929°
True anomaly
209.42967°
Mean anomaly
209.4853°
Eccentric anomaly
209.45748°
Mean motion
3.77112 °/min
Orbital period
95.46 mins
BSTAR
0.00049218
Loading maneuver chart data...
Computing Atmospheric mass density...
Loading historical data...
Loading historical data...
Loading historical data...
Loading historical data...
Loading historical data...
Loading historical data...
Loading historical data...

Documentation

Showing up to 5 results
|